New York, NY

5:07 PM EST on January 17, 2017 (GMT -0500)
Central Park

Weather History for KNYC - May, 2014

Change the Weather History Date:

Tuesday, May 20, 2014

  Actual Average Record
Temperature  
Mean Temperature 66 °F 64 °F  
Max Temperature 78 °F 72 °F 96 °F (1996)
Min Temperature 53 °F 55 °F 43 °F (2002)
Degree Days  
Heating Degree Days 0 4  
Month to date heating degree days 57 109  
Since 1 July heating degree days 4946 4702  
Cooling Degree Days 1 2  
Month to date cooling degree days 22 26  
Year to date cooling degree days 26 38  
Growing Degree Days 16 (Base 50)    
Moisture  
Dew Point 37 °F    
Average Humidity 39    
Maximum Humidity 59    
Minimum Humidity 18    
Precipitation  
Precipitation 0.00 in 0.14 in 2.03 in (1972)
Month to date precipitation 2.77 2.56  
Year to date precipitation 22.56 18.16  
Snow  
Snow 0.00 in 0.00 in 0.00 in (2002)
Month to date snowfall 0.0 0.0  
Since 1 July snowfall 57.4 25.8  
Snow Depth 0.00 in    
Sea Level Pressure  
Sea Level Pressure 30.05 in    
Wind  
Wind Speed 3 mph (WNW)    
Max Wind Speed 13 mph    
Max Gust Speed 22 mph    
Visibility 10 miles    
Events      
T = Trace of Precipitation, MM = Missing Value Source: NWS Daily Summary

Daily Weather History Graph

Daily Weather History Graph

Search for Another Location

Airport or City:

Trip Planner

Search our weather history database for the weather conditions in past years. The results will help you decide how hot, cold, wet, or windy it might be!

Date:

Astronomy

May. 20, 2014 Rise Set
Actual Time 5:34 AM EDT 8:11 PM EDT
Civil Twilight 5:02 AM EDT 8:42 PM EDT
Nautical Twilight 4:23 AM EDT 9:22 PM EDT
Astronomical Twilight 3:38 AM EDT 10:07 PM EDT
Moon 12:38 AM EDT (5/20) 11:39 AM EDT (5/20)
Length of Visible Light 15h 40m
Length of Day
14h 36m
Waning Gibbous, 60% of the Moon is Illuminated
May 20
Waning Gibbous
May 21
Last Quarter
May 28
New
Jun 5
First Quarter
Jun 13
Full

Hourly Weather History & Observations

Time (EDT) Temp. Dew Point Humidity Pressure Visibility Wind Dir Wind Speed Gust Speed Precip Events Conditions
12:51 AM 59.0 °F 39.0 °F 48% 30.11 in 10.0 mi West 6.9 mph - N/A   Clear
1:51 AM 57.0 °F 39.9 °F 53% 30.11 in 10.0 mi West 3.5 mph - N/A   Clear
2:51 AM 57.0 °F 41.0 °F 55% 30.11 in 10.0 mi Calm Calm - N/A   Clear
3:51 AM 57.0 °F 39.9 °F 53% 30.11 in 10.0 mi Variable 4.6 mph - N/A   Clear
4:51 AM 55.9 °F 41.0 °F 57% 30.12 in 10.0 mi NNE 5.8 mph - N/A   Clear
5:51 AM 55.0 °F 39.9 °F 57% 30.13 in 10.0 mi Calm Calm - N/A   Clear
6:51 AM 55.0 °F 39.9 °F 57% 30.14 in 10.0 mi Calm Calm - N/A   Clear
7:51 AM 59.0 °F 41.0 °F 51% 30.14 in 10.0 mi Calm Calm - N/A   Clear
8:51 AM 63.0 °F 42.1 °F 46% 30.13 in 10.0 mi Variable 4.6 mph - N/A   Clear
9:51 AM 66.9 °F 39.0 °F 36% 30.11 in 10.0 mi Calm Calm - N/A   Clear
10:51 AM 71.1 °F 35.1 °F 27% 30.09 in 10.0 mi North - - N/A   Clear
11:51 AM 73.9 °F 30.9 °F 21% 30.07 in 10.0 mi Variable 6.9 mph - N/A   Clear
12:51 PM 75.9 °F 33.1 °F 21% 30.05 in 10.0 mi Calm Calm - N/A   Clear
1:51 PM 75.9 °F 33.1 °F 21% 30.02 in 10.0 mi Variable 3.5 mph - N/A   Mostly Cloudy
2:51 PM 77.0 °F 33.1 °F 20% 30.01 in 10.0 mi NW 8.1 mph - N/A   Partly Cloudy
3:51 PM 78.1 °F 34.0 °F 20% 29.99 in 10.0 mi North - - N/A   Partly Cloudy
4:51 PM 78.1 °F 34.0 °F 20% 29.98 in 10.0 mi North - - N/A   Scattered Clouds
5:51 PM 77.0 °F 30.9 °F 19% 29.97 in 10.0 mi Variable 4.6 mph - N/A   Clear
6:51 PM 75.0 °F 33.1 °F 22% 29.97 in 10.0 mi Calm Calm - N/A   Clear
7:51 PM 75.0 °F 34.0 °F 22% 29.97 in 10.0 mi Variable 4.6 mph - N/A   Clear
8:51 PM 73.0 °F 35.1 °F 25% 29.98 in 10.0 mi WNW 4.6 mph - N/A   Clear
9:51 PM 72.0 °F 36.0 °F 27% 29.99 in 10.0 mi Calm Calm - N/A   Clear
10:51 PM 71.1 °F 37.0 °F 29% 29.98 in 10.0 mi WNW 3.5 mph - N/A   Mostly Cloudy
11:51 PM 70.0 °F 37.9 °F 31% 29.99 in 10.0 mi Variable 5.8 mph - N/A   Scattered Clouds